TimeCDT,TemperatureF,Dew PointF,Humidity,Sea Level PressureIn,VisibilityMPH,Wind Direction,Wind SpeedMPH,Gust SpeedMPH,PrecipitationIn,Events,Conditions,WindDirDegrees,DateUTC
12:53 AM,55.9,48.0,75,30.07,10.0,NNW,5.8,-,N/A,,Clear,330,2013-06-13 05:53:00
1:53 AM,54.0,48.0,80,30.11,10.0,WNW,4.6,-,N/A,,Clear,300,2013-06-13 06:53:00
2:53 AM,53.1,46.9,80,30.10,10.0,Calm,Calm,-,N/A,,Clear,0,2013-06-13 07:53:00
3:53 AM,53.1,48.0,83,30.11,10.0,NNW,6.9,-,N/A,,Clear,340,2013-06-13 08:53:00
4:53 AM,53.1,48.0,83,30.12,10.0,NW,5.8,-,N/A,,Clear,320,2013-06-13 09:53:00
5:53 AM,53.1,48.0,83,30.13,10.0,NNW,3.5,-,N/A,,Clear,340,2013-06-13 10:53:00
6:53 AM,57.9,51.1,78,30.11,10.0,NNE,4.6,-,N/A,,Clear,30,2013-06-13 11:53:00
7:53 AM,62.1,53.1,72,30.12,10.0,NE,3.5,-,N/A,,Clear,40,2013-06-13 12:53:00
8:53 AM,64.9,53.1,65,30.13,10.0,Calm,Calm,-,N/A,,Clear,0,2013-06-13 13:53:00
9:53 AM,70.0,54.0,57,30.13,10.0,NNW,3.5,-,N/A,,Clear,330,2013-06-13 14:53:00
10:53 AM,73.0,53.1,49,30.13,10.0,Calm,Calm,-,N/A,,Clear,0,2013-06-13 15:53:00
11:53 AM,73.9,52.0,46,30.13,6.0,Variable,3.5,-,N/A,,Haze,0,2013-06-13 16:53:00
12:53 PM,77.0,53.1,43,30.12,10.0,NNE,6.9,-,N/A,,Partly Cloudy,20,2013-06-13 17:53:00
1:53 PM,75.9,50.0,40,30.09,10.0,ENE,4.6,-,N/A,,Mostly Cloudy,60,2013-06-13 18:53:00
2:53 PM,79.0,50.0,36,30.08,10.0,Variable,4.6,-,N/A,,Scattered Clouds,0,2013-06-13 19:53:00
3:53 PM,80.1,48.0,32,30.07,10.0,SE,9.2,-,N/A,,Clear,130,2013-06-13 20:53:00
4:53 PM,79.0,48.9,35,30.04,10.0,Variable,3.5,-,N/A,,Clear,0,2013-06-13 21:53:00
5:53 PM,81.0,50.0,34,30.03,10.0,ENE,6.9,-,N/A,,Clear,70,2013-06-13 22:53:00
6:53 PM,79.0,48.9,35,30.01,10.0,ESE,5.8,-,N/A,,Clear,120,2013-06-13 23:53:00
7:53 PM,78.1,48.9,36,30.01,10.0,ESE,10.4,-,N/A,,Clear,110,2013-06-14 00:53:00
8:53 PM,75.0,50.0,41,30.01,10.0,ESE,6.9,-,N/A,,Clear,120,2013-06-14 01:53:00
9:53 PM,72.0,51.1,48,30.01,10.0,ESE,5.8,-,N/A,,Clear,120,2013-06-14 02:53:00
10:53 PM,70.0,51.1,51,30.01,10.0,ESE,8.1,-,N/A,,Clear,120,2013-06-14 03:53:00
11:53 PM,69.1,52.0,54,29.99,10.0,ESE,10.4,-,N/A,,Clear,120,2013-06-14 04:53:00